WESTFORD NEEDLES, 2997

Orbit data source: Space-Track

WESTFORD NEEDLES, 2997 is space debris in LEO originally from a launch on Thu, 09 May 1963 UTC launched from the Air Force Western Test Range (AFWTR). Debris objects in space refer to the collection of defunct objects orbiting the Earth. Examples of debris include non-operational satellites, rocket bodies, and fragments generated from explosions, collisions, or faulty payload assembly.

Loading next visibility...
Identifier
2997, 1963-014AU
Orbit
LEO
Country
Flag of USUS
Related business
Manufacturer
Unknown
Mission
Spacecraft
Bus & Motor
Unknown
Mass
Unknown
Launch date (UTC)
1963-05-09 (62 years ago)
Launch vehicle
Unknown
Launch site
Air Force Western Test Range (AFWTR)
Object type
Payload
Rocket body
Debris
Shape & HBR
Unknown shape, 0.3 m
Radar Cross Section
Medium (>0.1 m² and <1 m²)

Expand to show TLE details & history
Last TLE update: 8 hours ago

TLE from 8 hours ago
0 WESTFORD NEEDLES
1 02997U 63014AU  25300.12647273  .00002050  00000-0  57382+0 0  9994
2 02997  86.7820 193.2473 0865934 141.6434 224.9357  8.77737412296013
Epoch: 2025-10-27T03:02Z
TLE epoch observation values (Epoch: 2025-10-27T03:02:07.243Z)
Latitude
-0.00002°
Longitude
111.98433°
Altitude
4,193.796 km
Speed
5.939 km/s
True Right ascension
12h 52m 59s
True Declination
0° 00' 00"
Sunlit
Object was in daylight at epoch
Visualization orbit readout
Latitude
Unknown
Longitude
Unknown
Altitude
Unknown
Speed
Unknown
Apparent Right ascension
Unknown
Apparent Declination
Unknown
Sunlit
N/A
Visualization observer readout
Local Sidereal Time
06:52:07
Azimuth
Unknown
Elevation
Unknown
Doppler factor
Unknown
Orbital elements
Apogee altitude
4,406.252 km
Perigee altitude
2,687.381 km
Semi-major axis
9,924.954 km
Eccentricity
0.08659
Inclination
86.782°
RAAN
193.2473°
Arg. of periapsis
141.6434°
True anomaly
218.44091°
Mean anomaly
224.9357°
Eccentric anomaly
221.63914°
Mean motion
2.19508 °/min
Orbital period
164 mins
BSTAR
0.57382
Loading maneuver chart data...
Computing Atmospheric mass density...

Documentation

Showing up to 5 results
|